Regional Weather Roundup
Issued by NWS

Home | Current Version | Previous Version | Graphics & Text | Print | Product List | Glossary On
Versions: 1 2 3 4 5 6 7 8 9 10 11 12 13 14 15 16 17 18 19 20 21 22 23 24 25 26 27 28 29 30 31 32 33 34 35 36 37 38 39 40 41 42 43 44 45 46 47 48 49 50
000
ASUS43 KOAX 250202
RWRNE

WEATHER ROUNDUP FOR NEBRASKA
NATIONAL WEATHER SERVICE OMAHA NE
900 PM CDT SUN JUL 24 2016

NOTES: SATELLITE DATA IS BEING USED TO AUGMENT CLOUD COVER ABOVE
       12000 FEET.
       "FAIR" INDICATES FEW OR NO CLOUDS BELOW 12,000 FEET WITH NO
       SIGNIFICANT WEATHER AND/OR OBSTRUCTIONS TO VISIBILITY.

  * THESE STATIONS DO NOT REPORT WEATHER SUCH AS RAIN...SNOW OR FOG.

NEZ001>004-019>022-054>056-250300-
NEBRASKA PANHANDLE

CITY           SKY/WX    TMP DP  RH WIND       PRES   REMARKS
SCOTTSBLUFF    CLOUDY    76  55  48 E13       30.12R
ALLIANCE       CLOUDY    76  52  43 SE14      30.13R
CHADRON        PTCLDY    82  50  32 SE10      30.08R
KIMBALL        CLOUDY    65  57  75 S15       30.19R
SIDNEY         CLOUDY    69  56  62 S25       30.16R
$$

NEZ057>060-069>072-079>082-250300-
SOUTHWEST NEBRASKA

CITY           SKY/WX    TMP DP  RH WIND       PRES   REMARKS
NORTH PLATTE   CLOUDY    73  65  75 SE6       30.12R
IMPERIAL       LGT RAIN  74  62  66 E6        30.18R
LEXINGTON      CLOUDY    74  64  72 NE5       30.12R
MCCOOK         MOCLDY    76  59  55 NE10      30.11R
OGALLALA       CLOUDY    76  58  53 SE13G30   30.10F
$$

NEZ005>010-023>029-035>040-094-250300-
NORTH CENTRAL NEBRASKA

CITY           SKY/WX    TMP DP  RH WIND       PRES   REMARKS
VALENTINE      CLEAR     80  50  34 SE6       30.10R
AINSWORTH      CLOUDY    75  65  72 NE5       30.12R
BROKEN BOW     PTCLDY    72  64  76 SE3       30.12R
O`NEILL        CLOUDY    76  62  61 CALM      30.10R
ORD            CLEAR     75  64  68 E3        30.09R
THEDFORD       CLOUDY    79  58  47 SE7       30.15R
$$

NEZ041-046>049-061>064-073>077-083>087-250300-
SOUTH CENTRAL NEBRASKA

CITY           SKY/WX    TMP DP  RH WIND       PRES   REMARKS
GRAND ISLAND   CLEAR     74  63  68 NE5       30.08R
AURORA         CLEAR     73  69  85 N5        30.06S
HASTINGS       CLEAR     76  64  66 NE3       30.08R
HEBRON         CLEAR     75  64  67 E3        30.03S
HOLDREGE       CLEAR     73  64  72 E3        30.10R
KEARNEY *      CLEAR     73  64  73 E6        30.10R
$$

NEZ011>018-030>034-042>045-250300-
NORTHEAST NEBRASKA

CITY           SKY/WX    TMP DP  RH WIND       PRES   REMARKS
NORFOLK        CLOUDY    74  60  61 N7        30.07R
ALBION         CLOUDY    73  64  74 NE5       30.09R
BLAIR          CLEAR     76  69  79 N6        30.03S
FREMONT        PTCLDY    77  65  65 CALM      30.03S
TEKAMAH        CLEAR     75  68  78 N3        30.02S
WAYNE          CLEAR     69  65  89 CALM      30.08R
$$

NEZ050>053-065>068-078-088>093-250300-
SOUTHEAST NEBRASKA

CITY           SKY/WX    TMP DP  RH WIND       PRES   REMARKS
LINCOLN        CLEAR     75  67  76 N3        30.02R
OMAHA EPPLEY   PTCLDY    76  68  76 N5        30.00S
BEATRICE       CLEAR     76  65  68 CALM      30.02R
FALLS CITY     CLOUDY    76  69  79 E5        29.97F
NEBRASKA CITY  CLOUDY    74  66  75 NW3       30.01R
PLATTSMOUTH    CLEAR     75  67  75 N6        29.99F
$$

NEZ044-045-051>053-067-250300-
OMAHA AREA

CITY           SKY/WX    TMP DP  RH WIND       PRES   REMARKS
OMAHA EPPLEY   PTCLDY    76  68  76 N5        30.00S
BLAIR          CLEAR     76  69  79 N6        30.03S
FREMONT        PTCLDY    77  65  65 CALM      30.03S
MILLARD        CLEAR     79  65  60 CALM      30.01S
OFFUTT AFB     CLEAR     75  66  72 N7        29.99F
PLATTSMOUTH    CLEAR     75  67  75 N6        29.99F
WAHOO          FAIR      75  67  76 N6        30.02S
$$



USA.gov is the U.S. government's official web portal to all federal, state and local government web resources and services.